Time,TemperatureF,DewpointF,PressureIn,WindDirection,WindDirectionDegrees,WindSpeedMPH,WindSpeedGustMPH,Humidity,HourlyPrecipIn,Conditions,Clouds,dailyrainin,SoftwareType,DateUTC
2013-05-30 00:10:00,65.7,59.7,30.02,East,90,0.0,-999.0,81,-99.99,,,0.00,Acu-Link.com,2013-05-30 04:10:00,
2013-05-30 00:25:00,65.3,59.3,30.02,East,90,0.0,-999.0,81,-99.99,,,0.00,Acu-Link.com,2013-05-30 04:25:00,
2013-05-30 00:40:00,65.1,59.1,30.02,NNE,22,0.0,-999.0,81,-99.99,,,0.00,Acu-Link.com,2013-05-30 04:40:00,
2013-05-30 00:55:00,64.8,59.2,30.02,East,90,0.0,-999.0,82,-99.99,,,0.00,Acu-Link.com,2013-05-30 04:55:00,
2013-05-30 01:10:00,64.6,59.3,30.02,NNE,22,0.0,-999.0,83,-99.99,,,0.00,Acu-Link.com,2013-05-30 05:10:00,
2013-05-30 01:25:00,64.2,58.9,30.02,ESE,112,0.0,-999.0,83,-99.99,,,0.00,Acu-Link.com,2013-05-30 05:25:00,
2013-05-30 01:40:00,64.0,58.7,30.02,NNE,22,0.0,-999.0,83,-99.99,,,0.00,Acu-Link.com,2013-05-30 05:40:00,
2013-05-30 01:55:00,64.0,59.1,30.02,NNE,22,0.0,-999.0,84,-99.99,,,0.00,Acu-Link.com,2013-05-30 05:55:00,
2013-05-30 02:11:00,64.0,59.1,30.01,ESE,112,0.0,-999.0,84,-99.99,,,0.00,Acu-Link.com,2013-05-30 06:11:00,
2013-05-30 02:26:00,64.0,59.1,30.02,South,180,0.0,-999.0,84,-99.99,,,0.00,Acu-Link.com,2013-05-30 06:26:00,
2013-05-30 02:41:00,64.0,59.1,30.01,SW,225,0.0,-999.0,84,-99.99,,,0.00,Acu-Link.com,2013-05-30 06:41:00,
2013-05-30 02:56:00,63.9,59.0,30.01,West,270,0.0,-999.0,84,-99.99,,,0.00,Acu-Link.com,2013-05-30 06:56:00,
2013-05-30 03:11:00,63.7,59.1,30.01,West,270,0.0,-999.0,85,-99.99,,,0.00,Acu-Link.com,2013-05-30 07:11:00,
2013-05-30 03:26:00,63.5,58.9,30.01,SSW,202,0.0,-999.0,85,-99.99,,,0.00,Acu-Link.com,2013-05-30 07:26:00,
2013-05-30 03:41:00,63.5,58.9,30.02,SSW,202,0.0,-999.0,85,-99.99,,,0.00,Acu-Link.com,2013-05-30 07:41:00,
2013-05-30 03:56:00,63.3,58.4,30.02,SSW,202,0.0,-999.0,84,-99.99,,,0.00,Acu-Link.com,2013-05-30 07:56:00,
2013-05-30 04:13:00,63.1,58.2,30.03,SSW,202,0.0,-999.0,84,-99.99,,,0.00,Acu-Link.com,2013-05-30 08:13:00,
2013-05-30 04:28:00,63.0,58.4,30.03,SW,225,0.0,-999.0,85,-99.99,,,0.00,Acu-Link.com,2013-05-30 08:28:00,
2013-05-30 04:43:00,62.8,57.9,30.03,North,0,0.0,-999.0,84,-99.99,,,0.00,Acu-Link.com,2013-05-30 08:43:00,
2013-05-30 04:59:00,62.4,57.8,30.05,West,270,0.0,-999.0,85,-99.99,,,0.00,Acu-Link.com,2013-05-30 08:59:00,
2013-05-30 05:14:00,62.1,57.5,30.05,West,270,0.0,-999.0,85,-99.99,,,0.00,Acu-Link.com,2013-05-30 09:14:00,
2013-05-30 05:29:00,61.9,57.3,30.05,West,270,0.0,-999.0,85,-99.99,,,0.00,Acu-Link.com,2013-05-30 09:29:00,
2013-05-30 05:44:00,61.7,57.1,30.06,North,0,0.0,-999.0,85,-99.99,,,0.00,Acu-Link.com,2013-05-30 09:44:00,
2013-05-30 05:59:00,61.5,57.3,30.08,West,270,0.0,-999.0,86,-99.99,,,0.00,Acu-Link.com,2013-05-30 09:59:00,
2013-05-30 06:14:00,61.7,57.5,30.09,WSW,247,0.0,-999.0,86,-99.99,,,0.00,Acu-Link.com,2013-05-30 10:14:00,
2013-05-30 06:30:00,61.9,57.7,30.08,South,180,0.0,-999.0,86,-99.99,,,0.00,Acu-Link.com,2013-05-30 10:30:00,
2013-05-30 06:45:00,61.9,57.7,30.08,SW,225,0.0,-999.0,86,-99.99,,,0.00,Acu-Link.com,2013-05-30 10:45:00,
2013-05-30 07:00:00,62.2,58.0,30.09,SW,225,0.0,-999.0,86,-99.99,,,0.00,Acu-Link.com,2013-05-30 11:00:00,
2013-05-30 07:15:00,62.6,58.7,30.09,SW,225,0.0,-999.0,87,-99.99,,,0.00,Acu-Link.com,2013-05-30 11:15:00,
2013-05-30 07:30:00,63.1,59.2,30.09,SW,225,0.0,-999.0,87,-99.99,,,0.00,Acu-Link.com,2013-05-30 11:30:00,
2013-05-30 07:45:00,63.9,60.0,30.09,SW,225,0.0,-999.0,87,-99.99,,,0.00,Acu-Link.com,2013-05-30 11:45:00,
2013-05-30 08:00:00,65.1,61.1,30.09,North,0,0.0,-999.0,87,-99.99,,,0.00,Acu-Link.com,2013-05-30 12:00:00,
2013-05-30 08:15:00,67.1,63.1,30.10,South,180,0.0,-999.0,87,-99.99,,,0.00,Acu-Link.com,2013-05-30 12:15:00,
2013-05-30 08:30:00,68.2,63.2,30.10,SSW,202,0.0,-999.0,84,-99.99,,,0.00,Acu-Link.com,2013-05-30 12:30:00,
2013-05-30 08:46:00,69.3,63.2,30.10,SW,225,1.7,-999.0,81,-99.99,,,0.00,Acu-Link.com,2013-05-30 12:46:00,
2013-05-30 09:01:00,70.7,63.5,30.09,WSW,247,0.0,-999.0,78,-99.99,,,0.00,Acu-Link.com,2013-05-30 13:01:00,
2013-05-30 09:16:00,72.3,63.5,30.10,SSW,202,1.7,-999.0,74,-99.99,,,0.00,Acu-Link.com,2013-05-30 13:16:00,
2013-05-30 09:31:00,75.0,63.3,30.10,WNW,292,1.1,-999.0,67,-99.99,,,0.00,Acu-Link.com,2013-05-30 13:31:00,
2013-05-30 09:46:00,78.8,61.8,30.10,NNE,22,2.7,-999.0,56,-99.99,,,0.00,Acu-Link.com,2013-05-30 13:46:00,
2013-05-30 10:01:00,82.9,62.3,30.09,NW,315,1.7,-999.0,50,-99.99,,,0.00,Acu-Link.com,2013-05-30 14:01:00,
2013-05-30 10:16:00,80.2,63.1,30.09,WNW,292,2.7,-999.0,56,-99.99,,,0.00,Acu-Link.com,2013-05-30 14:16:00,
2013-05-30 10:31:00,80.1,60.3,30.09,NNE,22,0.0,-999.0,51,-99.99,,,0.00,Acu-Link.com,2013-05-30 14:31:00,
2013-05-30 10:46:00,81.7,61.2,30.09,South,180,1.1,-999.0,50,-99.99,,,0.00,Acu-Link.com,2013-05-30 14:46:00,
2013-05-30 11:02:00,82.6,60.9,30.08,West,270,2.2,-999.0,48,-99.99,,,0.00,Acu-Link.com,2013-05-30 15:02:00,
2013-05-30 11:17:00,84.4,60.1,30.08,North,0,1.1,-999.0,44,-99.99,,,0.00,Acu-Link.com,2013-05-30 15:17:00,
2013-05-30 11:32:00,83.1,61.9,30.07,ESE,112,1.7,-999.0,49,-99.99,,,0.00,Acu-Link.com,2013-05-30 15:32:00,
2013-05-30 11:47:00,83.5,61.7,30.07,South,180,2.7,-999.0,48,-99.99,,,0.00,Acu-Link.com,2013-05-30 15:47:00,
2013-05-30 12:02:00,83.7,61.9,30.08,West,270,1.7,-999.0,48,-99.99,,,0.00,Acu-Link.com,2013-05-30 16:02:00,
2013-05-30 12:17:00,84.9,60.5,30.07,West,270,3.2,-999.0,44,-99.99,,,0.00,Acu-Link.com,2013-05-30 16:17:00,
2013-05-30 12:32:00,84.9,60.5,30.07,ESE,112,1.1,-999.0,44,-99.99,,,0.00,Acu-Link.com,2013-05-30 16:32:00,
2013-05-30 12:47:00,85.6,58.5,30.07,South,180,1.7,-999.0,40,-99.99,,,0.00,Acu-Link.com,2013-05-30 16:47:00,
2013-05-30 13:02:00,84.9,57.9,30.06,SW,225,1.1,-999.0,40,-99.99,,,0.00,Acu-Link.com,2013-05-30 17:02:00,
2013-05-30 13:18:00,85.8,58.7,30.05,South,180,1.7,-999.0,40,-99.99,,,0.00,Acu-Link.com,2013-05-30 17:18:00,
2013-05-30 13:33:00,86.0,58.8,30.05,East,90,1.7,-999.0,40,-99.99,,,0.00,Acu-Link.com,2013-05-30 17:33:00,
2013-05-30 13:48:00,84.7,58.4,30.04,SE,135,0.0,-999.0,41,-99.99,,,0.00,Acu-Link.com,2013-05-30 17:48:00,
2013-05-30 14:03:00,86.2,57.6,30.04,NNE,22,1.1,-999.0,38,-99.99,,,0.00,Acu-Link.com,2013-05-30 18:03:00,
2013-05-30 14:18:00,86.0,61.5,30.03,SE,135,1.7,-999.0,44,-99.99,,,0.00,Acu-Link.com,2013-05-30 18:18:00,
2013-05-30 14:33:00,86.5,55.6,30.03,SSE,157,2.2,-999.0,35,-99.99,,,0.00,Acu-Link.com,2013-05-30 18:33:00,
2013-05-30 14:48:00,87.8,55.9,30.02,SSW,202,2.2,-999.0,34,-99.99,,,0.00,Acu-Link.com,2013-05-30 18:48:00,
2013-05-30 15:03:00,87.4,54.7,30.02,West,270,1.7,-999.0,33,-99.99,,,0.00,Acu-Link.com,2013-05-30 19:03:00,
2013-05-30 15:18:00,88.0,55.3,30.01,NW,315,1.7,-999.0,33,-99.99,,,0.00,Acu-Link.com,2013-05-30 19:18:00,
2013-05-30 15:34:00,88.5,54.0,30.00,SW,225,1.7,-999.0,31,-99.99,,,0.00,Acu-Link.com,2013-05-30 19:34:00,
2013-05-30 15:49:00,88.3,53.8,30.00,West,270,1.1,-999.0,31,-99.99,,,0.00,Acu-Link.com,2013-05-30 19:49:00,
2013-05-30 16:04:00,90.0,56.1,30.00,South,180,1.1,-999.0,32,-99.99,,,0.00,Acu-Link.com,2013-05-30 20:04:00,
2013-05-30 16:19:00,91.4,55.6,29.99,ESE,112,0.0,-999.0,30,-99.99,,,0.00,Acu-Link.com,2013-05-30 20:19:00,
2013-05-30 16:34:00,92.7,50.6,29.99,NE,45,1.1,-999.0,24,-99.99,,,0.00,Acu-Link.com,2013-05-30 20:34:00,
2013-05-30 16:49:00,90.7,57.6,29.99,NE,45,0.0,-999.0,33,-99.99,,,0.00,Acu-Link.com,2013-05-30 20:49:00,
2013-05-30 17:04:00,91.2,55.4,29.99,SE,135,1.7,-999.0,30,-99.99,,,0.00,Acu-Link.com,2013-05-30 21:04:00,
2013-05-30 17:19:00,88.2,55.4,29.99,East,90,2.2,-999.0,33,-99.99,,,0.00,Acu-Link.com,2013-05-30 21:19:00,
2013-05-30 17:34:00,87.8,56.7,29.99,East,90,1.7,-999.0,35,-99.99,,,0.00,Acu-Link.com,2013-05-30 21:34:00,
2013-05-30 17:49:00,86.9,56.7,29.99,ENE,67,1.7,-999.0,36,-99.99,,,0.00,Acu-Link.com,2013-05-30 21:49:00,
2013-05-30 18:05:00,90.3,56.4,29.99,WSW,247,0.0,-999.0,32,-99.99,,,0.00,Acu-Link.com,2013-05-30 22:05:00,
2013-05-30 18:20:00,88.5,55.7,29.98,SSE,157,0.0,-999.0,33,-99.99,,,0.00,Acu-Link.com,2013-05-30 22:20:00,
2013-05-30 18:35:00,86.5,57.8,29.98,East,90,0.0,-999.0,38,-99.99,,,0.00,Acu-Link.com,2013-05-30 22:35:00,
2013-05-30 18:50:00,85.6,58.5,29.98,SE,135,0.0,-999.0,40,-99.99,,,0.00,Acu-Link.com,2013-05-30 22:50:00,
2013-05-30 19:05:00,85.1,60.1,29.98,WSW,247,0.0,-999.0,43,-99.99,,,0.00,Acu-Link.com,2013-05-30 23:05:00,
2013-05-30 19:20:00,84.7,60.3,29.98,WSW,247,0.0,-999.0,44,-99.99,,,0.00,Acu-Link.com,2013-05-30 23:20:00,
2013-05-30 19:35:00,82.2,61.1,29.98,WSW,247,0.0,-999.0,49,-99.99,,,0.00,Acu-Link.com,2013-05-30 23:35:00,
2013-05-30 19:50:00,80.1,61.9,29.98,WSW,247,0.0,-999.0,54,-99.99,,,0.00,Acu-Link.com,2013-05-30 23:50:00,
2013-05-30 20:05:00,78.6,62.6,29.98,WSW,247,0.0,-999.0,58,-99.99,,,0.00,Acu-Link.com,2013-05-31 00:05:00,
2013-05-30 20:21:00,77.0,62.0,29.98,WSW,247,0.0,-999.0,60,-99.99,,,0.00,Acu-Link.com,2013-05-31 00:21:00,
2013-05-30 20:36:00,75.7,62.2,29.98,WSW,247,0.0,-999.0,63,-99.99,,,0.00,Acu-Link.com,2013-05-31 00:36:00,
2013-05-30 20:51:00,74.7,61.3,29.98,WSW,247,0.0,-999.0,63,-99.99,,,0.00,Acu-Link.com,2013-05-31 00:51:00,
2013-05-30 21:06:00,73.8,61.7,29.98,WSW,247,0.0,-999.0,66,-99.99,,,0.00,Acu-Link.com,2013-05-31 01:06:00,
2013-05-30 21:21:00,72.9,62.9,29.98,WSW,247,0.0,-999.0,71,-99.99,,,0.00,Acu-Link.com,2013-05-31 01:21:00,
2013-05-30 21:36:00,72.1,62.6,29.99,WSW,247,0.0,-999.0,72,-99.99,,,0.00,Acu-Link.com,2013-05-31 01:36:00,
2013-05-30 21:51:00,71.4,62.7,30.00,WSW,247,0.0,-999.0,74,-99.99,,,0.00,Acu-Link.com,2013-05-31 01:51:00,
2013-05-30 22:06:00,70.9,62.9,30.00,WSW,247,0.0,-999.0,76,-99.99,,,0.00,Acu-Link.com,2013-05-31 02:06:00,
2013-05-30 22:21:00,70.2,63.0,30.00,WSW,247,0.0,-999.0,78,-99.99,,,0.00,Acu-Link.com,2013-05-31 02:21:00,
2013-05-30 22:37:00,69.6,62.4,29.99,WSW,247,0.0,-999.0,78,-99.99,,,0.00,Acu-Link.com,2013-05-31 02:37:00,
2013-05-30 22:52:00,69.4,62.6,30.00,WSW,247,0.0,-999.0,79,-99.99,,,0.00,Acu-Link.com,2013-05-31 02:52:00,
2013-05-30 23:07:00,68.9,62.1,30.00,WSW,247,0.0,-999.0,79,-99.99,,,0.00,Acu-Link.com,2013-05-31 03:07:00,
2013-05-30 23:22:00,68.5,61.4,30.00,WSW,247,0.0,-999.0,78,-99.99,,,0.00,Acu-Link.com,2013-05-31 03:22:00,
2013-05-30 23:37:00,68.2,61.8,30.00,WSW,247,0.0,-999.0,80,-99.99,,,0.00,Acu-Link.com,2013-05-31 03:37:00,
2013-05-30 23:52:00,68.0,62.3,30.00,WSW,247,0.0,-999.0,82,-99.99,,,0.00,Acu-Link.com,2013-05-31 03:52:00,